Weather Roundup
Issued by NWS Springfield, MO

Home | Current Version | Previous Version | Text Only | Print | Product List | Glossary On
Versions: 1 2 3 4 5 6 7 8 9 10 11 12 13 14 15 16 17 18 19 20 21 22 23 24 25 26 27 28 29 30 31 32 33 34 35 36 37 38 39 40 41 42 43 44 45 46 47 48 49 50
000
NZUS99 KSGF 030559
HRRSGF

HOURLY WEATHER
NATIONAL WEATHER SERVICE SPRINGFIELD MO
1200 AM CST TUE MAR 03 2015

......SGF CWA......

CITY           SKY/WX    TMP DP  RH WIND       PRES   REMARKS
SPRINGFIELD    CLOUDY    34  24  67 S16       30.05F WCI  24
6HR MIN TEMP:  34; 6HR MAX TEMP:  35;

JOPLIN         CLOUDY    35  30  82 S7        30.04F WCI  29
6HR MIN TEMP:  35; 6HR MAX TEMP:  35;

WEST PLAINS    CLOUDY    31  23  72 SE9       30.14F WCI  23
6HR MIN TEMP:  31; 6HR MAX TEMP:  36;

ROLLA          CLOUDY    34  20  56 S15       30.05F WCI  24
6HR MIN TEMP:  33; 6HR MAX TEMP:  34;

OSAGE BEACH    CLOUDY    36  19  51 S8        30.06F WCI  29

......SURROUNDING SGF CWA......

CITY           SKY/WX    TMP DP  RH WIND       PRES   REMARKS
CHANUTE        CLOUDY    34  33  96 S16       30.00F FOG     WCI  24
PARSONS        CLOUDY    35  34  96 S9        30.02F FOG     WCI  28
COFFEYVILLE    CLOUDY    35  33  92 S12       30.04F FOG     WCI  27
EMPORIA        FOG       32  32 100 S13G21    29.93F VSB 1   WCI  22
SILOAM SPRINGS CLOUDY    37  28  70 S10       30.08F WCI  30
HARRISON AR    CLOUDY    34  29  82 SE20      30.08F WCI  23
NEAR YELLVILLE CLOUDY    34  23  64 SE6       30.14F WCI  29

......KANSAS AND MISSOURI......

CITY           SKY/WX    TMP DP  RH WIND       PRES   REMARKS
KANSAS CTY INT CLOUDY    34  27  75 S16       29.98F WCI  24
DOWNTOWN KC    CLOUDY    36  27  69 S16       30.00F WCI  26
COLUMBIA       CLOUDY    32  22  66 SE10      30.07F WCI  24
SEDALIA        CLOUDY    35  24  64 S7        30.04F WCI  29
ST JOSEPH      CLOUDY    33  23  66 S8        29.98F WCI  26
ST LOUIS       CLOUDY    33  21  61 SE10      30.18F WCI  25
SPIRIT OF STL  CLOUDY    32  20  61 E9        30.14F WCI  24
WICHITA        CLOUDY    33  31  92 S23G30    29.91F FOG     WCI  21
TOPEKA         CLOUDY    34  28  79 S10       29.95F WCI  26
OLATHE         CLOUDY    33  28  81 S14       29.97F WCI  23

......TENNESSEE......

CITY           SKY/WX    TMP DP  RH WIND       PRES   REMARKS
MEMPHIS        DRIZZLE   43  39  86 E3        30.20F FOG
NASHVILLE      MOCLDY    43  31  62 CALM      30.21F

......ARKANSAS.......

CITY           SKY/WX    TMP DP  RH WIND       PRES   REMARKS
FAYETTEVILLE   CLOUDY    37  35  92 S6        30.07F WCI  32
FT SMITH       CLOUDY    37  32  82 E8        30.15F WCI  31
LITTLE ROCK    CLOUDY    35  32  88 CALM      30.21F FOG

......OKLAHOMA.......

CITY           SKY/WX    TMP DP  RH WIND       PRES   REMARKS
TULSA          CLOUDY    36  36 100 S14       30.05F FOG     WCI  27
PONCA CITY     CLOUDY    36  34  92 S13G20    29.99F FOG     WCI  27
MCALESTER      CLOUDY    38  37  97 S10G16    30.12F FOG     WCI  31
OKLAHOMA CITY  CLOUDY    37  34  89 S17G26    30.00F FOG     WCI  27

......IOWA............

CITY           SKY/WX    TMP DP  RH WIND       PRES   REMARKS
DES MOINES     CLOUDY    30  19  63 SE12      30.01F WCI  20
QUAD CITIES    FAIR      26  18  71 SE13      30.14F WCI  15

......ILLINOIS........

CITY           SKY/WX    TMP DP  RH WIND       PRES   REMARKS
QUINCY         CLOUDY    28  20  71 SE14      30.12F WCI  17
CHICAGO        CLOUDY    26  15  63 S9        30.22F WCI  17




USA.gov is the U.S. government's official web portal to all federal, state and local government web resources and services.